User: anonymous   Login
Location: Fuglau
(48.6333°N, 15.5500°E)
Time: 21:49:19
(UTC+00:00)
Language:

STARLINK-1029 - Orbit

View from above orbital plane
View from above orbital plane
View from above satellite
View from above satellite

Ground track
Ground track

The orbit data is extracted from the following two-line orbital elements,

1 44734U 19074X   20158.58334491 +.00028900 +00000-0 +34466-3 0  9991
2 44734 052.9974 230.0372 0003158 308.5005 138.9159 15.60849675001553
Epoch (UTC): 06 June 2020 14:00:01
Eccentricity: 0.0003158
inclination: 52.9974°
perigee height: 383 km
apogee height: 387 km
right ascension of ascending node: 230.0372°
argument of perigee: 308.5005°
revolutions per day: 15.60849675
mean anomaly at epoch: 138.9159°
orbit number at epoch: 155

The dashed part of the orbit path shows where the satellite is in the earth's shadow,  

DLR